Le nostre stazioni meteo in Italia

Pubblicità
Il mio iltempo24.it
Bolzano, Italia (16020): Temperatura & dewpoint: 09.10.2019 12:00:00 - 15.10.2019 12:00:00 (CEST)Bolzano, Italia (16020): velocità del vento: 09.10.2019 12:00:00 - 15.10.2019 12:00:00 (CEST)Bolzano, Italia (16020): direzione del vento: 09.10.2019 12:00:00 - 15.10.2019 12:00:00 (CEST)Bolzano, Italia (16020): visibility: 09.10.2019 12:00:00 - 15.10.2019 12:00:00 (CEST)
Data & Tempo tt [°C] td [°C] ff [km/h] ff [kn] dd vv [km]
15.10.2019 12:00:00 19,0 14,0 0 0 N 6
15.10.2019 11:00:00 17,0 14,0 4 2 - 7
15.10.2019 10:00:00 16,0 14,0 2 1 - 7
15.10.2019 09:00:00 14,0 13,0 4 2 - 7
15.10.2019 08:00:00 13,0 12,0 2 1 - 7
15.10.2019 07:00:00 13,0 12,0 0 0 N 10
15.10.2019 06:00:00 - - - - - -
15.10.2019 05:00:00 - - - - - -
15.10.2019 04:00:00 - - - - - -
15.10.2019 03:00:00 - - - - - -
15.10.2019 02:00:00 - - - - - -
15.10.2019 01:00:00 - - - - - -
15.10.2019 00:00:00 - - - - - -
14.10.2019 23:00:00 16,0 13,0 2 1 - 10
14.10.2019 22:00:00 14,0 12,0 4 2 N 10
14.10.2019 21:00:00 15,0 12,0 2 1 - 10
14.10.2019 20:00:00 16,0 12,0 4 2 - 10
14.10.2019 19:00:00 19,0 12,0 5 3 - 10
14.10.2019 18:00:00 20,0 12,0 4 2 - 10
14.10.2019 17:00:00 19,0 12,0 4 2 - 10
14.10.2019 16:00:00 21,0 11,0 8 4 SSE 10
14.10.2019 15:00:00 20,0 11,0 4 2 - 10
14.10.2019 14:00:00 19,0 10,0 4 2 - 10
14.10.2019 13:00:00 17,0 10,0 5 3 - 10
14.10.2019 12:00:00 16,0 10,0 4 2 - 10
14.10.2019 11:00:00 14,0 10,0 2 1 - 10
14.10.2019 10:00:00 11,0 9,0 4 2 - 10
14.10.2019 09:00:00 8,0 7,0 0 0 N 10
14.10.2019 08:00:00 7,0 6,0 2 1 - 10
14.10.2019 07:00:00 9,0 8,0 8 4 N 10
14.10.2019 06:00:00 - - - - - -
14.10.2019 05:00:00 - - - - - -
14.10.2019 04:00:00 - - - - - -
14.10.2019 03:00:00 - - - - - -
14.10.2019 02:00:00 - - - - - -
14.10.2019 01:00:00 - - - - - -
14.10.2019 00:00:00 - - - - - -
13.10.2019 23:00:00 10,0 9,0 4 2 NO 10
13.10.2019 22:00:00 11,0 10,0 2 1 - 10
13.10.2019 21:00:00 14,0 11,0 8 4 N 10
13.10.2019 20:00:00 13,0 11,0 4 2 - 10
13.10.2019 19:00:00 15,0 11,0 5 3 - 10
13.10.2019 18:00:00 18,0 11,0 5 3 ONO 10
13.10.2019 17:00:00 19,0 11,0 5 3 - 10
13.10.2019 16:00:00 20,0 9,0 4 2 - 10
13.10.2019 15:00:00 19,0 9,0 5 3 - 10
13.10.2019 14:00:00 18,0 9,0 4 2 - 10
13.10.2019 13:00:00 16,0 9,0 4 2 - 10
13.10.2019 12:00:00 15,0 9,0 4 2 - 10
13.10.2019 11:00:00 13,0 8,0 4 2 - 10
13.10.2019 10:00:00 11,0 8,0 0 0 N 10
13.10.2019 09:00:00 9,0 7,0 2 1 - 10
13.10.2019 08:00:00 9,0 7,0 4 2 - 10
13.10.2019 07:00:00 9,0 8,0 4 2 - 10
13.10.2019 06:00:00 - - - - - -
13.10.2019 05:00:00 - - - - - -
13.10.2019 04:00:00 - - - - - -
13.10.2019 03:00:00 - - - - - -
13.10.2019 02:00:00 - - - - - -
13.10.2019 01:00:00 - - - - - -
13.10.2019 00:00:00 - - - - - -
12.10.2019 23:00:00 11,0 10,0 5 3 - 10
12.10.2019 22:00:00 11,0 10,0 9 5 NNO 10
12.10.2019 21:00:00 12,0 10,0 5 3 NNE 10
12.10.2019 20:00:00 13,0 11,0 0 0 N 10
12.10.2019 19:00:00 15,0 11,0 2 1 SSE 10
12.10.2019 18:00:00 18,0 11,0 0 0 N 10
12.10.2019 17:00:00 - - - - - -
12.10.2019 16:00:00 19,0 10,0 5 3 SSO 10
12.10.2019 15:00:00 19,0 9,0 4 2 - 10
12.10.2019 14:00:00 18,0 8,0 5 3 - 10
12.10.2019 13:00:00 17,0 8,0 0 0 N 10
12.10.2019 12:00:00 15,0 8,0 4 2 - 10
12.10.2019 11:00:00 13,0 8,0 2 1 - 10
12.10.2019 10:00:00 10,0 8,0 2 1 - 10
12.10.2019 09:00:00 6,0 5,0 0 0 N 10
12.10.2019 08:00:00 6,0 5,0 0 0 N 10
12.10.2019 07:00:00 6,0 5,0 2 1 - 10
12.10.2019 06:00:00 - - - - - -
12.10.2019 05:00:00 - - - - - -
12.10.2019 04:00:00 - - - - - -
12.10.2019 03:00:00 - - - - - -
12.10.2019 02:00:00 - - - - - -
12.10.2019 01:00:00 - - - - - -
12.10.2019 00:00:00 - - - - - -
11.10.2019 23:00:00 8,0 7,0 4 2 - 10
11.10.2019 22:00:00 9,0 7,0 4 2 NO 10
11.10.2019 21:00:00 10,0 8,0 5 3 O 10
11.10.2019 20:00:00 12,0 9,0 4 2 - 10
11.10.2019 19:00:00 14,0 9,0 8 4 NNO 10
11.10.2019 18:00:00 17,0 9,0 5 3 - 10
11.10.2019 17:00:00 19,0 9,0 8 4 OSO 10
11.10.2019 16:00:00 20,0 8,0 4 2 - 10
11.10.2019 15:00:00 19,0 6,0 2 1 - 10
11.10.2019 14:00:00 17,0 4,0 4 2 - 10
11.10.2019 13:00:00 16,0 6,0 5 3 - 10
11.10.2019 12:00:00 - - - - - -
11.10.2019 11:00:00 13,0 6,0 4 2 - 10
11.10.2019 10:00:00 10,0 6,0 4 2 - 10
11.10.2019 09:00:00 6,0 5,0 0 0 N 10
11.10.2019 08:00:00 5,0 5,0 0 0 N 10
11.10.2019 07:00:00 5,0 4,0 0 0 N 10
11.10.2019 06:00:00 - - - - - -
11.10.2019 05:00:00 - - - - - -
11.10.2019 04:00:00 - - - - - -
11.10.2019 03:00:00 - - - - - -
11.10.2019 02:00:00 - - - - - -
11.10.2019 01:00:00 - - - - - -
11.10.2019 00:00:00 - - - - - -
10.10.2019 23:00:00 9,0 7,0 0 0 N 10
10.10.2019 22:00:00 11,0 8,0 0 0 N 10
10.10.2019 21:00:00 11,0 8,0 0 0 N 10
10.10.2019 20:00:00 12,0 9,0 4 2 - 10
10.10.2019 19:00:00 14,0 10,0 2 1 ONO 10
10.10.2019 18:00:00 18,0 11,0 4 2 - 10
10.10.2019 17:00:00 20,0 9,0 4 2 - 10
10.10.2019 16:00:00 19,0 9,0 5 3 - 10
10.10.2019 15:00:00 19,0 9,0 8 4 SSO 10
10.10.2019 14:00:00 18,0 10,0 4 2 S 10
10.10.2019 13:00:00 17,0 9,0 4 2 - 10
10.10.2019 12:00:00 15,0 10,0 4 2 - 10
10.10.2019 11:00:00 13,0 10,0 5 3 - 10
10.10.2019 10:00:00 12,0 10,0 2 1 - 10
10.10.2019 09:00:00 10,0 9,0 4 2 NO 10
10.10.2019 08:00:00 9,0 8,0 0 0 N 10
10.10.2019 07:00:00 9,0 9,0 4 2 - 10
10.10.2019 06:00:00 - - - - - -
10.10.2019 05:00:00 - - - - - -
10.10.2019 04:00:00 - - - - - -
10.10.2019 03:00:00 - - - - - -
10.10.2019 02:00:00 - - - - - -
10.10.2019 01:00:00 - - - - - -
10.10.2019 00:00:00 - - - - - -
09.10.2019 23:00:00 12,0 11,0 0 0 N 9
09.10.2019 22:00:00 12,0 11,0 4 2 O 9
09.10.2019 21:00:00 12,0 12,0 4 2 S 7
09.10.2019 20:00:00 12,0 11,0 4 2 NO 8
09.10.2019 19:00:00 12,0 11,0 5 3 N 7
09.10.2019 18:00:00 13,0 11,0 4 2 NNO 7
09.10.2019 17:00:00 13,0 10,0 0 0 N 9
09.10.2019 16:00:00 13,0 10,0 4 2 SSO 8
09.10.2019 15:00:00 13,0 10,0 4 2 - 9
09.10.2019 14:00:00 13,0 10,0 2 1 - 10
09.10.2019 13:00:00 13,0 11,0 4 2 - 8
09.10.2019 12:00:00 13,0 10,0 2 1 - 10

tt = Temperatura
td = dewpoint
ff = velocità del vento
dd = direzione del vento
vv = visibility

Stazioni seguenti

WeatherPro
AMSI
MeteoEarth